Wetterdaten: Freitag, 06.11.2015
Datum Zeit Auen-Temp. Temp gefhlt Luftfeuchte Luftdruck Regen Wind Richtung Richtung Taupunkt Windben
06.11.2015 00:00 3,4 C 3,3 C 90 % 1021,5 hPa 0,0 mm 0,0 km/h (0 Bft) SO 135 1,9 C 0,0 km/h (0 Bft)
06.11.2015 00:05 3,6 C 3,4 C 90 % 1021,5 hPa 0,0 mm 0,0 km/h (0 Bft) SO 135 2,1 C 0,0 km/h (0 Bft)
06.11.2015 00:10 3,3 C 3,2 C 90 % 1021,6 hPa 0,0 mm 0,0 km/h (0 Bft) SO 135 1,8 C 0,0 km/h (0 Bft)
06.11.2015 00:15 3,4 C 3,3 C 90 % 1021,6 hPa 0,0 mm 0,0 km/h (0 Bft) SO 135 1,9 C 0,0 km/h (0 Bft)
06.11.2015 00:20 3,2 C 3,1 C 90 % 1021,6 hPa 0,0 mm 0,0 km/h (0 Bft) SO 135 1,7 C 0,0 km/h (0 Bft)
06.11.2015 00:25 3,4 C 3,2 C 90 % 1021,6 hPa 0,0 mm 0,0 km/h (0 Bft) SO 135 1,9 C 0,0 km/h (0 Bft)
06.11.2015 00:30 3,3 C 3,1 C 90 % 1021,6 hPa 0,0 mm 0,0 km/h (0 Bft) SO 135 1,8 C 0,0 km/h (0 Bft)
06.11.2015 00:35 3,3 C 3,1 C 90 % 1021,6 hPa 0,0 mm 0,0 km/h (0 Bft) SO 135 1,8 C 0,0 km/h (0 Bft)
06.11.2015 00:40 3,2 C 3,1 C 90 % 1021,6 hPa 0,0 mm 0,0 km/h (0 Bft) SO 135 1,7 C 0,0 km/h (0 Bft)
06.11.2015 00:45 3,4 C 3,2 C 91 % 1021,6 hPa 0,0 mm 0,0 km/h (0 Bft) SO 135 2,1 C 0,0 km/h (0 Bft)
06.11.2015 00:50 3,5 C 3,4 C 86 % 1021,6 hPa 0,0 mm 0,0 km/h (0 Bft) SO 135 1,4 C 0,0 km/h (0 Bft)
06.11.2015 00:55 3,4 C 3,3 C 91 % 1021,6 hPa 0,0 mm 0,0 km/h (0 Bft) SO 135 2,1 C 0,0 km/h (0 Bft)
06.11.2015 01:00 3,2 C 3,1 C 91 % 1021,6 hPa 0,0 mm 0,0 km/h (0 Bft) SO 135 1,9 C 0,0 km/h (0 Bft)
06.11.2015 01:05 3,2 C 3,1 C 91 % 1021,6 hPa 0,0 mm 0,0 km/h (0 Bft) SO 135 1,9 C 0,0 km/h (0 Bft)
06.11.2015 01:10 3,2 C 3,1 C 91 % 1021,9 hPa 0,0 mm 0,0 km/h (0 Bft) SO 135 1,9 C 0,0 km/h (0 Bft)
06.11.2015 01:15 3,0 C 2,9 C 91 % 1021,9 hPa 0,0 mm 0,0 km/h (0 Bft) SO 135 1,7 C 0,0 km/h (0 Bft)
06.11.2015 01:20 3,0 C 2,9 C 91 % 1021,9 hPa 0,0 mm 0,0 km/h (0 Bft) SO 135 1,7 C 0,0 km/h (0 Bft)
06.11.2015 01:25 3,2 C 3,0 C 91 % 1021,9 hPa 0,0 mm 0,0 km/h (0 Bft) SO 135 1,9 C 0,0 km/h (0 Bft)
06.11.2015 01:30 3,2 C 3,0 C 91 % 1021,9 hPa 0,0 mm 0,0 km/h (0 Bft) SO 135 1,9 C 0,0 km/h (0 Bft)
06.11.2015 01:35 3,6 C 3,3 C 91 % 1021,9 hPa 0,0 mm 0,0 km/h (0 Bft) W-SW 247 2,3 C 0,0 km/h (0 Bft)
06.11.2015 01:40 3,6 C 3,3 C 91 % 1021,9 hPa 0,0 mm 0,0 km/h (0 Bft) W-SW 247 2,3 C 0,0 km/h (0 Bft)
06.11.2015 01:45 3,8 C 3,5 C 91 % 1021,9 hPa 0,0 mm 0,5 km/h (0 Bft) S-SO 157 2,5 C 0,0 km/h (0 Bft)
06.11.2015 01:50 3,9 C 3,7 C 91 % 1022,2 hPa 0,0 mm 0,8 km/h (0 Bft) S 180 2,6 C 0,0 km/h (0 Bft)
06.11.2015 01:55 3,7 C 3,6 C 91 % 1022,2 hPa 0,0 mm 0,5 km/h (0 Bft) S-SO 157 2,4 C 0,0 km/h (0 Bft)
06.11.2015 02:00 3,5 C 3,5 C 91 % 1022,2 hPa 0,0 mm 0,0 km/h (0 Bft) S-SO 157 2,2 C 0,0 km/h (0 Bft)
06.11.2015 02:05 3,9 C 3,7 C 92 % 1022,2 hPa 0,0 mm 0,0 km/h (0 Bft) NW 315 2,7 C 0,0 km/h (0 Bft)
06.11.2015 02:10 4,3 C 4,1 C 87 % 1022,3 hPa 0,0 mm 0,0 km/h (0 Bft) S 180 2,3 C 0,0 km/h (0 Bft)
06.11.2015 02:14 3,8 C 3,8 C 92 % 1022,3 hPa 0,0 mm 0,3 km/h (0 Bft) SO 135 2,6 C 0,0 km/h (0 Bft)
06.11.2015 02:17 3,8 C 3,8 C 92 % 1022,3 hPa 0,0 mm 0,3 km/h (0 Bft) SO 135 2,6 C 0,0 km/h (0 Bft)
06.11.2015 02:20 3,6 C 3,7 C 92 % 1022,3 hPa 0,0 mm 0,3 km/h (0 Bft) S-SO 157 2,4 C 0,0 km/h (0 Bft)
06.11.2015 02:25 3,9 C 3,9 C 92 % 1022,3 hPa 0,0 mm 0,3 km/h (0 Bft) SO 135 2,7 C 0,0 km/h (0 Bft)
06.11.2015 02:30 3,7 C 3,8 C 92 % 1022,5 hPa 0,0 mm 0,5 km/h (0 Bft) SO 135 2,5 C 2,6 km/h (1 Bft)
06.11.2015 02:35 3,8 C 3,7 C 92 % 1022,5 hPa 0,0 mm 0,3 km/h (0 Bft) SO 135 2,6 C 0,0 km/h (0 Bft)
06.11.2015 02:40 4,1 C 3,9 C 92 % 1022,5 hPa 0,0 mm 0,0 km/h (0 Bft) SO 135 2,9 C 0,0 km/h (0 Bft)
06.11.2015 02:45 4,3 C 4,0 C 92 % 1022,5 hPa 0,0 mm 0,0 km/h (0 Bft) SO 135 3,1 C 0,0 km/h (0 Bft)
06.11.2015 02:50 3,7 C 3,6 C 92 % 1022,6 hPa 0,0 mm 0,0 km/h (0 Bft) O-SO 112 2,5 C 0,0 km/h (0 Bft)
06.11.2015 02:55 3,8 C 3,6 C 92 % 1022,6 hPa 0,0 mm 0,0 km/h (0 Bft) SO 135 2,6 C 0,0 km/h (0 Bft)
06.11.2015 03:00 4,0 C 3,8 C 87 % 1022,6 hPa 0,0 mm 0,0 km/h (0 Bft) S-SO 157 2,0 C 0,0 km/h (0 Bft)
06.11.2015 03:05 3,7 C 3,6 C 92 % 1022,6 hPa 0,0 mm 0,0 km/h (0 Bft) N-NW 337 2,5 C 0,0 km/h (0 Bft)
06.11.2015 03:10 3,7 C 3,6 C 92 % 1022,4 hPa 0,0 mm 0,0 km/h (0 Bft) N-NW 337 2,5 C 0,0 km/h (0 Bft)
06.11.2015 03:15 3,7 C 3,5 C 92 % 1022,4 hPa 0,0 mm 0,0 km/h (0 Bft) NW 315 2,5 C 0,0 km/h (0 Bft)
06.11.2015 03:20 4,0 C 3,8 C 92 % 1022,4 hPa 0,0 mm 0,5 km/h (0 Bft) SO 135 2,8 C 0,0 km/h (0 Bft)
06.11.2015 03:25 4,0 C 3,8 C 92 % 1022,4 hPa 0,0 mm 0,5 km/h (0 Bft) O-NO 67 2,8 C 0,0 km/h (0 Bft)
06.11.2015 03:30 3,8 C 3,7 C 92 % 1022,4 hPa 0,0 mm 0,0 km/h (0 Bft) NO 45 2,6 C 9,1 km/h (2 Bft)
06.11.2015 03:35 3,8 C 3,7 C 92 % 1022,4 hPa 0,0 mm 0,0 km/h (0 Bft) N 360 2,6 C 0,0 km/h (0 Bft)
06.11.2015 03:40 3,7 C 3,7 C 92 % 1022,4 hPa 0,0 mm 0,0 km/h (0 Bft) N-NO 22 2,5 C 0,0 km/h (0 Bft)
06.11.2015 03:45 3,6 C 3,6 C 92 % 1022,4 hPa 0,0 mm 0,0 km/h (0 Bft) N-NO 22 2,4 C 0,0 km/h (0 Bft)
06.11.2015 03:50 3,7 C 3,6 C 92 % 1022,5 hPa 0,0 mm 0,0 km/h (0 Bft) N-NO 22 2,5 C 0,0 km/h (0 Bft)
06.11.2015 03:55 3,7 C 3,7 C 92 % 1022,5 hPa 0,0 mm 0,0 km/h (0 Bft) N-NO 22 2,5 C 0,0 km/h (0 Bft)
06.11.2015 04:00 3,6 C 3,7 C 92 % 1022,5 hPa 0,0 mm 0,0 km/h (0 Bft) N-NW 337 2,4 C 0,0 km/h (0 Bft)
06.11.2015 04:05 3,8 C 3,7 C 92 % 1022,5 hPa 0,0 mm 0,0 km/h (0 Bft) N-NO 22 2,6 C 0,0 km/h (0 Bft)
06.11.2015 04:10 3,7 C 3,7 C 92 % 1022,7 hPa 0,0 mm 0,0 km/h (0 Bft) N-NO 22 2,5 C 0,0 km/h (0 Bft)
06.11.2015 04:15 4,0 C 3,9 C 92 % 1022,7 hPa 0,0 mm 0,0 km/h (0 Bft) N-NW 337 2,8 C 0,0 km/h (0 Bft)
06.11.2015 04:20 4,0 C 3,9 C 92 % 1022,7 hPa 0,0 mm 0,0 km/h (0 Bft) O-NO 67 2,8 C 0,0 km/h (0 Bft)
06.11.2015 04:25 4,0 C 3,9 C 92 % 1022,7 hPa 0,0 mm 0,0 km/h (0 Bft) N-NO 22 2,8 C 0,0 km/h (0 Bft)
06.11.2015 04:30 3,8 C 3,8 C 92 % 1022,8 hPa 0,0 mm 0,0 km/h (0 Bft) N-NO 22 2,6 C 0,0 km/h (0 Bft)
06.11.2015 04:35 3,8 C 3,7 C 92 % 1022,8 hPa 0,0 mm 0,0 km/h (0 Bft) NO 45 2,6 C 0,0 km/h (0 Bft)
06.11.2015 04:40 3,7 C 3,6 C 92 % 1022,8 hPa 0,0 mm 0,0 km/h (0 Bft) NO 45 2,5 C 0,0 km/h (0 Bft)
06.11.2015 04:45 3,8 C 3,7 C 92 % 1022,8 hPa 0,0 mm 0,0 km/h (0 Bft) O-NO 67 2,6 C 0,0 km/h (0 Bft)
06.11.2015 04:50 3,7 C 3,6 C 92 % 1023,1 hPa 0,0 mm 0,0 km/h (0 Bft) NO 45 2,5 C 0,0 km/h (0 Bft)
06.11.2015 04:55 3,9 C 3,8 C 92 % 1023,1 hPa 0,0 mm 0,0 km/h (0 Bft) N-NO 22 2,7 C 0,0 km/h (0 Bft)
06.11.2015 05:00 3,8 C 3,8 C 92 % 1023,1 hPa 0,0 mm 0,0 km/h (0 Bft) O-NO 67 2,6 C 0,0 km/h (0 Bft)
06.11.2015 05:05 3,9 C 3,9 C 92 % 1023,1 hPa 0,0 mm 0,0 km/h (0 Bft) O 90 2,7 C 0,0 km/h (0 Bft)
06.11.2015 05:10 4,2 C 4,1 C 87 % 1022,9 hPa 0,0 mm 0,0 km/h (0 Bft) O-NO 67 2,2 C 0,0 km/h (0 Bft)
06.11.2015 05:15 4,2 C 4,1 C 92 % 1022,9 hPa 0,0 mm 0,0 km/h (0 Bft) NO 45 3,0 C 0,0 km/h (0 Bft)
06.11.2015 05:20 4,4 C 4,3 C 92 % 1022,9 hPa 0,0 mm 0,0 km/h (0 Bft) O 90 3,2 C 0,0 km/h (0 Bft)
06.11.2015 05:25 4,2 C 4,2 C 92 % 1022,9 hPa 0,0 mm 0,0 km/h (0 Bft) O 90 3,0 C 0,0 km/h (0 Bft)
06.11.2015 05:30 4,2 C 4,2 C 92 % 1023,0 hPa 0,0 mm 0,0 km/h (0 Bft) O 90 3,0 C 0,0 km/h (0 Bft)
06.11.2015 05:35 4,2 C 4,2 C 92 % 1023,0 hPa 0,0 mm 0,0 km/h (0 Bft) O 90 3,0 C 0,0 km/h (0 Bft)
06.11.2015 05:40 4,2 C 4,2 C 92 % 1023,0 hPa 0,0 mm 0,0 km/h (0 Bft) O 90 3,0 C 0,0 km/h (0 Bft)
06.11.2015 05:45 4,3 C 4,3 C 87 % 1023,0 hPa 0,0 mm 0,0 km/h (0 Bft) O 90 2,3 C 0,0 km/h (0 Bft)
06.11.2015 05:50 4,5 C 4,7 C 87 % 1023,1 hPa 0,0 mm 0,0 km/h (0 Bft) O 90 2,5 C 0,0 km/h (0 Bft)
06.11.2015 05:55 4,6 C 4,7 C 87 % 1023,1 hPa 0,0 mm 0,0 km/h (0 Bft) NO 45 2,6 C 0,0 km/h (0 Bft)
06.11.2015 06:00 4,6 C 4,7 C 87 % 1023,1 hPa 0,0 mm 0,0 km/h (0 Bft) NO 45 2,6 C 0,0 km/h (0 Bft)
06.11.2015 06:05 4,9 C 4,8 C 93 % 1023,1 hPa 0,0 mm 0,0 km/h (0 Bft) O-NO 67 3,9 C 0,0 km/h (0 Bft)
06.11.2015 06:10 4,9 C 4,8 C 93 % 1023,2 hPa 0,0 mm 0,0 km/h (0 Bft) O-NO 67 3,9 C 0,0 km/h (0 Bft)
06.11.2015 06:15 4,9 C 4,9 C 87 % 1023,2 hPa 0,0 mm 0,0 km/h (0 Bft) O-NO 67 2,9 C 0,0 km/h (0 Bft)
06.11.2015 06:20 4,9 C 4,8 C 93 % 1023,2 hPa 0,0 mm 0,0 km/h (0 Bft) NO 45 3,9 C 0,0 km/h (0 Bft)
06.11.2015 06:25 4,9 C 4,8 C 92 % 1023,2 hPa 0,0 mm 0,0 km/h (0 Bft) O 90 3,7 C 0,0 km/h (0 Bft)
06.11.2015 06:30 5,1 C 5,0 C 92 % 1023,2 hPa 0,0 mm 0,0 km/h (0 Bft) O 90 3,9 C 0,0 km/h (0 Bft)
06.11.2015 06:35 5,0 C 5,0 C 92 % 1023,2 hPa 0,0 mm 0,0 km/h (0 Bft) NO 45 3,8 C 0,0 km/h (0 Bft)
06.11.2015 06:40 5,1 C 5,0 C 92 % 1023,2 hPa 0,0 mm 0,3 km/h (0 Bft) SO 135 3,9 C 2,8 km/h (1 Bft)
06.11.2015 06:45 5,2 C 5,1 C 92 % 1023,2 hPa 0,0 mm 0,8 km/h (0 Bft) W-NW 292 4,0 C 6,0 km/h (2 Bft)
06.11.2015 06:50 5,2 C 5,1 C 92 % 1023,4 hPa 0,0 mm 0,8 km/h (0 Bft) SO 135 4,0 C 0,0 km/h (0 Bft)
06.11.2015 06:55 5,6 C 5,6 C 87 % 1023,4 hPa 0,0 mm 1,0 km/h (0 Bft) SO 135 3,6 C 0,0 km/h (0 Bft)
06.11.2015 07:00 5,8 C 5,6 C 92 % 1023,4 hPa 0,0 mm 0,3 km/h (0 Bft) W-NW 292 4,6 C 0,0 km/h (0 Bft)
06.11.2015 07:05 4,9 C 5,1 C 92 % 1023,4 hPa 0,0 mm 0,0 km/h (0 Bft) N-NW 337 3,7 C 0,0 km/h (0 Bft)
06.11.2015 07:10 4,6 C 4,7 C 92 % 1023,2 hPa 0,0 mm 0,0 km/h (0 Bft) NW 315 3,4 C 0,0 km/h (0 Bft)
06.11.2015 07:15 4,6 C 4,6 C 91 % 1023,2 hPa 0,0 mm 0,0 km/h (0 Bft) O-NO 67 3,3 C 0,0 km/h (0 Bft)
06.11.2015 07:20 4,7 C 4,6 C 92 % 1023,2 hPa 0,0 mm 0,0 km/h (0 Bft) O-SO 112 3,5 C 0,0 km/h (0 Bft)
06.11.2015 07:25 4,6 C 4,6 C 91 % 1023,2 hPa 0,0 mm 0,0 km/h (0 Bft) N-NO 22 3,3 C 0,0 km/h (0 Bft)
06.11.2015 07:30 4,7 C 4,6 C 91 % 1023,4 hPa 0,0 mm 0,0 km/h (0 Bft) NO 45 3,4 C 0,0 km/h (0 Bft)
06.11.2015 07:35 4,9 C 4,8 C 91 % 1023,4 hPa 0,0 mm 0,0 km/h (0 Bft) O-NO 67 3,6 C 0,0 km/h (0 Bft)
06.11.2015 07:40 4,9 C 4,8 C 91 % 1023,4 hPa 0,0 mm 0,0 km/h (0 Bft) N-NO 22 3,6 C 0,0 km/h (0 Bft)
06.11.2015 07:45 5,0 C 5,0 C 86 % 1023,4 hPa 0,0 mm 0,0 km/h (0 Bft) O-SO 112 2,9 C 0,0 km/h (0 Bft)
06.11.2015 07:50 5,1 C 5,1 C 86 % 1023,3 hPa 0,0 mm 0,0 km/h (0 Bft) O-SO 112 3,0 C 0,0 km/h (0 Bft)
06.11.2015 07:55 5,2 C 5,3 C 86 % 1023,3 hPa 0,0 mm 0,0 km/h (0 Bft) O-NO 67 3,1 C 0,0 km/h (0 Bft)
06.11.2015 08:00 5,4 C 5,5 C 87 % 1023,3 hPa 0,0 mm 0,0 km/h (0 Bft) O-SO 112 3,4 C 0,0 km/h (0 Bft)
06.11.2015 08:05 5,6 C 5,7 C 87 % 1023,3 hPa 0,0 mm 0,0 km/h (0 Bft) NO 45 3,6 C 0,0 km/h (0 Bft)
06.11.2015 08:10 5,7 C 5,8 C 87 % 1023,5 hPa 0,0 mm 0,0 km/h (0 Bft) O-NO 67 3,7 C 0,0 km/h (0 Bft)
06.11.2015 08:15 5,9 C 5,9 C 87 % 1023,5 hPa 0,0 mm 0,0 km/h (0 Bft) O-NO 67 3,9 C 0,0 km/h (0 Bft)
06.11.2015 08:18 5,9 C 5,9 C 87 % 1023,5 hPa 0,0 mm 0,0 km/h (0 Bft) O-NO 67 3,9 C 0,0 km/h (0 Bft)
06.11.2015 08:20 5,9 C 5,9 C 87 % 1023,5 hPa 0,0 mm 0,0 km/h (0 Bft) O-NO 67 3,9 C 0,0 km/h (0 Bft)
06.11.2015 08:25 6,1 C 6,1 C 86 % 1023,5 hPa 0,0 mm 0,0 km/h (0 Bft) N-NO 22 3,9 C 0,0 km/h (0 Bft)
06.11.2015 08:30 6,1 C 6,2 C 86 % 1023,6 hPa 0,0 mm 0,0 km/h (0 Bft) O-SO 112 3,9 C 0,0 km/h (0 Bft)
06.11.2015 08:35 6,1 C 6,2 C 90 % 1023,6 hPa 0,0 mm 0,5 km/h (0 Bft) NW 315 4,6 C 3,1 km/h (1 Bft)
06.11.2015 08:40 5,8 C 6,2 C 91 % 1023,6 hPa 0,0 mm 0,5 km/h (0 Bft) NW 315 4,4 C 0,0 km/h (0 Bft)
06.11.2015 08:45 5,8 C 6,0 C 91 % 1023,6 hPa 0,0 mm 0,3 km/h (0 Bft) NW 315 4,4 C 0,0 km/h (0 Bft)
06.11.2015 08:50 5,7 C 5,9 C 91 % 1023,8 hPa 0,0 mm 0,0 km/h (0 Bft) O-NO 67 4,3 C 0,0 km/h (0 Bft)
06.11.2015 08:55 5,8 C 5,8 C 91 % 1023,8 hPa 0,0 mm 0,0 km/h (0 Bft) N-NO 22 4,4 C 0,0 km/h (0 Bft)
06.11.2015 09:00 6,0 C 5,9 C 90 % 1023,8 hPa 0,0 mm 0,0 km/h (0 Bft) O 90 4,5 C 0,0 km/h (0 Bft)
06.11.2015 09:05 5,9 C 5,9 C 91 % 1023,8 hPa 0,0 mm 0,0 km/h (0 Bft) NO 45 4,5 C 0,0 km/h (0 Bft)
06.11.2015 09:10 5,9 C 5,9 C 91 % 1023,9 hPa 0,0 mm 0,0 km/h (0 Bft) NO 45 4,5 C 0,0 km/h (0 Bft)
06.11.2015 09:15 6,0 C 6,0 C 90 % 1023,9 hPa 0,0 mm 0,0 km/h (0 Bft) SW 225 4,5 C 0,0 km/h (0 Bft)
06.11.2015 09:20 6,1 C 6,2 C 85 % 1023,9 hPa 0,0 mm 0,0 km/h (0 Bft) SO 135 3,8 C 0,0 km/h (0 Bft)
06.11.2015 09:25 6,4 C 6,5 C 85 % 1023,9 hPa 0,0 mm 0,0 km/h (0 Bft) SO 135 4,1 C 0,0 km/h (0 Bft)
06.11.2015 09:30 6,9 C 7,1 C 86 % 1024,1 hPa 0,0 mm 0,0 km/h (0 Bft) SO 135 4,7 C 0,0 km/h (0 Bft)
06.11.2015 09:35 7,6 C 7,6 C 85 % 1024,1 hPa 0,0 mm 0,0 km/h (0 Bft) SO 135 5,2 C 0,0 km/h (0 Bft)
06.11.2015 09:40 8,1 C 7,9 C 85 % 1024,1 hPa 0,0 mm 0,0 km/h (0 Bft) SO 135 5,7 C 0,0 km/h (0 Bft)
06.11.2015 09:45 8,4 C 8,3 C 85 % 1024,1 hPa 0,0 mm 0,0 km/h (0 Bft) SO 135 6,0 C 0,0 km/h (0 Bft)
06.11.2015 09:50 8,5 C 8,4 C 90 % 1023,9 hPa 0,0 mm 0,0 km/h (0 Bft) SO 135 7,0 C 0,0 km/h (0 Bft)
06.11.2015 09:55 8,4 C 8,5 C 89 % 1023,9 hPa 0,0 mm 0,0 km/h (0 Bft) SO 135 6,7 C 0,0 km/h (0 Bft)
06.11.2015 10:00 8,8 C 8,8 C 89 % 1023,9 hPa 0,0 mm 0,0 km/h (0 Bft) SO 135 7,1 C 0,0 km/h (0 Bft)
06.11.2015 10:05 9,3 C 9,2 C 89 % 1023,9 hPa 0,0 mm 0,0 km/h (0 Bft) SO 135 7,6 C 0,0 km/h (0 Bft)
06.11.2015 10:10 9,6 C 9,5 C 88 % 1023,9 hPa 0,0 mm 0,0 km/h (0 Bft) SO 135 7,7 C 0,0 km/h (0 Bft)
06.11.2015 10:15 9,9 C 9,9 C 88 % 1023,9 hPa 0,0 mm 0,0 km/h (0 Bft) SO 135 8,0 C 0,0 km/h (0 Bft)
06.11.2015 10:20 10,1 C 10,1 C 87 % 1023,9 hPa 0,0 mm 0,0 km/h (0 Bft) N-NO 22 8,0 C 0,0 km/h (0 Bft)
06.11.2015 10:25 10,8 C 10,6 C 84 % 1023,9 hPa 0,0 mm 0,0 km/h (0 Bft) SO 135 8,2 C 0,0 km/h (0 Bft)
06.11.2015 10:30 10,7 C 10,6 C 83 % 1024,0 hPa 0,0 mm 0,0 km/h (0 Bft) SO 135 7,9 C 0,0 km/h (0 Bft)
06.11.2015 10:35 11,2 C 11,8 C 81 % 1024,0 hPa 0,0 mm 2,8 km/h (1 Bft) W 270 8,1 C 12,2 km/h (2 Bft)
06.11.2015 10:40 11,6 C 11,8 C 79 % 1024,0 hPa 0,0 mm 2,8 km/h (1 Bft) W 270 8,1 C 13,7 km/h (3 Bft)
06.11.2015 10:45 11,9 C 14,4 C 76 % 1024,0 hPa 0,0 mm 6,2 km/h (2 Bft) NW 315 7,8 C 9,1 km/h (2 Bft)
06.11.2015 10:50 11,9 C 14,7 C 76 % 1023,9 hPa 0,0 mm 5,7 km/h (1 Bft) W 270 7,8 C 5,4 km/h (1 Bft)
06.11.2015 10:55 12,3 C 15,5 C 73 % 1023,9 hPa 0,0 mm 4,7 km/h (1 Bft) W-NW 292 7,6 C 15,0 km/h (3 Bft)
06.11.2015 11:00 12,7 C 15,5 C 70 % 1023,9 hPa 0,0 mm 4,7 km/h (1 Bft) W-NW 292 7,4 C 15,0 km/h (3 Bft)
06.11.2015 11:05 13,1 C 15,5 C 69 % 1023,9 hPa 0,0 mm 4,7 km/h (1 Bft) W-NW 292 7,5 C 15,0 km/h (3 Bft)
06.11.2015 11:10 13,2 C 15,5 C 68 % 1024,1 hPa 0,0 mm 0,0 km/h (0 Bft) W-NW 292 7,4 C 0,0 km/h (0 Bft)
06.11.2015 11:15 13,2 C 15,5 C 67 % 1024,1 hPa 0,0 mm 0,0 km/h (0 Bft) W-NW 292 7,2 C 0,0 km/h (0 Bft)
06.11.2015 11:20 13,6 C 15,5 C 66 % 1024,1 hPa 0,0 mm 0,0 km/h (0 Bft) W-NW 292 7,4 C 0,0 km/h (0 Bft)
06.11.2015 11:25 13,7 C 15,5 C 65 % 1024,1 hPa 0,0 mm 0,0 km/h (0 Bft) W-NW 292 7,2 C 0,0 km/h (0 Bft)
06.11.2015 11:30 13,9 C 15,5 C 65 % 1024,0 hPa 0,0 mm 0,0 km/h (0 Bft) W-NW 292 7,4 C 0,0 km/h (0 Bft)
06.11.2015 11:35 13,9 C 15,5 C 64 % 1024,0 hPa 0,0 mm 0,0 km/h (0 Bft) W-NW 292 7,2 C 0,0 km/h (0 Bft)
06.11.2015 11:40 14,0 C 15,5 C 63 % 1024,0 hPa 0,0 mm 0,0 km/h (0 Bft) W-NW 292 7,1 C 0,0 km/h (0 Bft)
06.11.2015 11:45 14,0 C 15,5 C 63 % 1024,0 hPa 0,0 mm 0,0 km/h (0 Bft) W-NW 292 7,1 C 0,0 km/h (0 Bft)
06.11.2015 11:50 14,1 C 15,5 C 63 % 1023,9 hPa 0,0 mm 0,0 km/h (0 Bft) W-NW 292 7,2 C 0,0 km/h (0 Bft)
06.11.2015 11:55 14,2 C 15,5 C 62 % 1023,9 hPa 0,0 mm 0,0 km/h (0 Bft) W-NW 292 7,0 C 0,0 km/h (0 Bft)
06.11.2015 12:00 14,4 C 15,5 C 61 % 1023,9 hPa 0,0 mm 0,0 km/h (0 Bft) W-NW 292 7,0 C 0,0 km/h (0 Bft)
06.11.2015 12:05 14,3 C 15,5 C 61 % 1023,9 hPa 0,0 mm 0,0 km/h (0 Bft) W-NW 292 6,9 C 0,0 km/h (0 Bft)
06.11.2015 12:10 14,4 C 15,5 C 61 % 1024,0 hPa 0,0 mm 0,0 km/h (0 Bft) W-NW 292 7,0 C 0,0 km/h (0 Bft)
06.11.2015 12:15 14,4 C 15,5 C 61 % 1024,0 hPa 0,0 mm 0,0 km/h (0 Bft) W-NW 292 7,0 C 0,0 km/h (0 Bft)
06.11.2015 12:20 14,5 C 15,5 C 61 % 1024,0 hPa 0,0 mm 0,0 km/h (0 Bft) W-NW 292 7,1 C 0,0 km/h (0 Bft)
06.11.2015 12:25 14,5 C 15,5 C 61 % 1024,0 hPa 0,0 mm 0,0 km/h (0 Bft) W-NW 292 7,1 C 0,0 km/h (0 Bft)
06.11.2015 12:30 14,6 C 15,5 C 60 % 1024,1 hPa 0,0 mm 0,0 km/h (0 Bft) W-NW 292 6,9 C 0,0 km/h (0 Bft)
06.11.2015 12:35 14,7 C 15,5 C 60 % 1024,1 hPa 0,0 mm 0,0 km/h (0 Bft) W-NW 292 7,0 C 0,0 km/h (0 Bft)
06.11.2015 12:40 14,7 C 15,5 C 59 % 1024,1 hPa 0,0 mm 0,0 km/h (0 Bft) W-NW 292 6,8 C 0,0 km/h (0 Bft)
06.11.2015 12:45 14,7 C 15,5 C 59 % 1024,1 hPa 0,0 mm 0,0 km/h (0 Bft) W-NW 292 6,8 C 0,0 km/h (0 Bft)
06.11.2015 12:50 14,8 C 15,5 C 59 % 1023,9 hPa 0,0 mm 0,0 km/h (0 Bft) W-NW 292 6,9 C 0,0 km/h (0 Bft)
06.11.2015 12:55 14,8 C 15,5 C 59 % 1023,9 hPa 0,0 mm 0,0 km/h (0 Bft) W-NW 292 6,9 C 0,0 km/h (0 Bft)
06.11.2015 13:00 14,8 C 15,5 C 59 % 1023,9 hPa 0,0 mm 0,0 km/h (0 Bft) W-NW 292 6,9 C 0,0 km/h (0 Bft)
06.11.2015 13:05 14,8 C 15,5 C 59 % 1023,9 hPa 0,0 mm 0,0 km/h (0 Bft) W-NW 292 6,9 C 0,0 km/h (0 Bft)
06.11.2015 13:10 14,9 C 15,5 C 59 % 1023,6 hPa 0,0 mm 0,0 km/h (0 Bft) W-NW 292 7,0 C 0,0 km/h (0 Bft)
06.11.2015 13:15 15,3 C 15,5 C 59 % 1023,6 hPa 0,0 mm 0,0 km/h (0 Bft) W-NW 292 7,3 C 0,0 km/h (0 Bft)
06.11.2015 13:20 16,0 C 15,8 C 59 % 1023,6 hPa 0,0 mm 0,0 km/h (0 Bft) W-NW 292 8,0 C 0,0 km/h (0 Bft)
06.11.2015 13:25 16,7 C 16,3 C 58 % 1023,6 hPa 0,0 mm 0,0 km/h (0 Bft) W-NW 292 8,4 C 0,0 km/h (0 Bft)
06.11.2015 13:30 17,1 C 16,6 C 58 % 1022,8 hPa 0,0 mm 0,0 km/h (0 Bft) W-NW 292 8,8 C 0,0 km/h (0 Bft)
06.11.2015 13:35 17,7 C 17,0 C 57 % 1022,8 hPa 0,0 mm 0,0 km/h (0 Bft) W-NW 292 9,1 C 0,0 km/h (0 Bft)
06.11.2015 13:40 17,8 C 17,0 C 56 % 1022,8 hPa 0,0 mm 0,0 km/h (0 Bft) W-NW 292 8,9 C 0,0 km/h (0 Bft)
06.11.2015 13:45 18,1 C 17,2 C 56 % 1022,8 hPa 0,0 mm 0,0 km/h (0 Bft) W-NW 292 9,2 C 0,0 km/h (0 Bft)
06.11.2015 13:50 18,1 C 17,2 C 55 % 1023,6 hPa 0,0 mm 0,0 km/h (0 Bft) W-NW 292 8,9 C 0,0 km/h (0 Bft)
06.11.2015 13:55 18,2 C 17,4 C 55 % 1023,6 hPa 0,0 mm 0,0 km/h (0 Bft) W-NW 292 9,0 C 0,0 km/h (0 Bft)
06.11.2015 14:00 18,2 C 17,4 C 55 % 1023,6 hPa 0,0 mm 0,0 km/h (0 Bft) W-NW 292 9,0 C 0,0 km/h (0 Bft)
06.11.2015 14:05 18,3 C 17,4 C 55 % 1023,6 hPa 0,0 mm 0,0 km/h (0 Bft) W-NW 292 9,1 C 0,0 km/h (0 Bft)
06.11.2015 14:10 18,4 C 17,4 C 55 % 1024,1 hPa 0,0 mm 0,0 km/h (0 Bft) W-NW 292 9,2 C 0,0 km/h (0 Bft)
06.11.2015 14:15 18,2 C 17,3 C 54 % 1024,1 hPa 0,0 mm 0,0 km/h (0 Bft) W-NW 292 8,7 C 0,0 km/h (0 Bft)
06.11.2015 14:19 18,2 C 17,3 C 54 % 1024,1 hPa 0,0 mm 0,0 km/h (0 Bft) W-NW 292 8,7 C 0,0 km/h (0 Bft)
06.11.2015 14:20 17,8 C 17,0 C 54 % 1024,1 hPa 0,0 mm 0,0 km/h (0 Bft) W-NW 292 8,4 C 0,0 km/h (0 Bft)
06.11.2015 14:25 17,5 C 16,8 C 54 % 1024,1 hPa 0,0 mm 0,0 km/h (0 Bft) W-NW 292 8,1 C 0,0 km/h (0 Bft)
06.11.2015 14:30 18,0 C 17,2 C 54 % 1024,2 hPa 0,0 mm 0,0 km/h (0 Bft) W-NW 292 8,6 C 0,0 km/h (0 Bft)
06.11.2015 14:35 18,1 C 17,2 C 53 % 1024,2 hPa 0,0 mm 0,0 km/h (0 Bft) W-NW 292 8,4 C 0,0 km/h (0 Bft)
06.11.2015 14:40 18,3 C 17,4 C 52 % 1024,2 hPa 0,0 mm 0,0 km/h (0 Bft) W-NW 292 8,3 C 0,0 km/h (0 Bft)
06.11.2015 14:45 18,5 C 17,5 C 53 % 1024,2 hPa 0,0 mm 0,0 km/h (0 Bft) W-NW 292 8,7 C 0,0 km/h (0 Bft)
06.11.2015 14:50 18,2 C 17,3 C 53 % 1024,3 hPa 0,0 mm 0,0 km/h (0 Bft) W-NW 292 8,5 C 0,0 km/h (0 Bft)
06.11.2015 14:55 18,1 C 17,2 C 53 % 1024,3 hPa 0,0 mm 0,0 km/h (0 Bft) W-NW 292 8,4 C 0,0 km/h (0 Bft)
06.11.2015 15:00 18,0 C 17,2 C 53 % 1024,3 hPa 0,0 mm 0,0 km/h (0 Bft) W-NW 292 8,3 C 0,0 km/h (0 Bft)
06.11.2015 15:05 17,6 C 16,9 C 53 % 1024,3 hPa 0,0 mm 0,0 km/h (0 Bft) W-NW 292 7,9 C 0,0 km/h (0 Bft)
06.11.2015 15:10 17,1 C 16,6 C 53 % 1024,4 hPa 0,0 mm 0,0 km/h (0 Bft) W-NW 292 7,4 C 0,0 km/h (0 Bft)
06.11.2015 15:15 16,8 C 16,4 C 54 % 1024,4 hPa 0,0 mm 0,0 km/h (0 Bft) W-NW 292 7,4 C 0,0 km/h (0 Bft)
06.11.2015 15:20 16,7 C 16,4 C 54 % 1024,4 hPa 0,0 mm 0,0 km/h (0 Bft) W-NW 292 7,3 C 0,0 km/h (0 Bft)
06.11.2015 15:25 16,5 C 16,3 C 55 % 1024,4 hPa 0,0 mm 0,0 km/h (0 Bft) W-NW 292 7,4 C 0,0 km/h (0 Bft)
06.11.2015 15:30 16,4 C 16,3 C 55 % 1024,6 hPa 0,0 mm 0,0 km/h (0 Bft) W-NW 292 7,3 C 0,0 km/h (0 Bft)
06.11.2015 15:35 16,3 C 16,2 C 56 % 1024,6 hPa 0,0 mm 0,0 km/h (0 Bft) W-NW 292 7,5 C 0,0 km/h (0 Bft)
06.11.2015 15:40 16,2 C 16,1 C 56 % 1024,6 hPa 0,0 mm 0,0 km/h (0 Bft) W-NW 292 7,4 C 0,0 km/h (0 Bft)
06.11.2015 15:45 16,0 C 15,9 C 56 % 1024,6 hPa 0,0 mm 0,0 km/h (0 Bft) W-NW 292 7,2 C 0,0 km/h (0 Bft)
06.11.2015 15:50 15,8 C 15,7 C 58 % 1024,7 hPa 0,0 mm 0,0 km/h (0 Bft) W-NW 292 7,6 C 0,0 km/h (0 Bft)
06.11.2015 15:55 15,4 C 15,5 C 58 % 1024,7 hPa 0,0 mm 0,0 km/h (0 Bft) W-NW 292 7,2 C 0,0 km/h (0 Bft)
06.11.2015 16:00 15,2 C 15,5 C 59 % 1024,7 hPa 0,0 mm 0,0 km/h (0 Bft) W-NW 292 7,2 C 0,0 km/h (0 Bft)
06.11.2015 16:05 15,1 C 15,5 C 59 % 1024,7 hPa 0,0 mm 0,0 km/h (0 Bft) W-NW 292 7,1 C 0,0 km/h (0 Bft)
06.11.2015 16:10 14,9 C 15,5 C 61 % 1024,8 hPa 0,0 mm 0,0 km/h (0 Bft) W-NW 292 7,4 C 0,0 km/h (0 Bft)
06.11.2015 16:15 14,8 C 15,5 C 61 % 1024,8 hPa 0,0 mm 0,0 km/h (0 Bft) W-NW 292 7,4 C 0,0 km/h (0 Bft)
06.11.2015 16:20 14,7 C 15,1 C 61 % 1024,8 hPa 0,0 mm 3,6 km/h (1 Bft) W-SW 247 7,3 C 4,4 km/h (1 Bft)
06.11.2015 16:25 14,7 C 15,0 C 61 % 1024,8 hPa 0,0 mm 3,6 km/h (1 Bft) W-SW 247 7,3 C 6,0 km/h (2 Bft)
06.11.2015 16:30 14,6 C 15,0 C 61 % 1024,8 hPa 0,0 mm 3,6 km/h (1 Bft) W-SW 247 7,2 C 4,9 km/h (1 Bft)
06.11.2015 16:35 14,5 C 14,9 C 61 % 1024,8 hPa 0,0 mm 4,1 km/h (1 Bft) W-SW 247 7,1 C 4,4 km/h (1 Bft)
06.11.2015 16:40 14,4 C 14,8 C 61 % 1024,8 hPa 0,0 mm 4,1 km/h (1 Bft) SW 225 7,0 C 3,9 km/h (1 Bft)
06.11.2015 16:45 14,3 C 14,6 C 61 % 1024,8 hPa 0,0 mm 3,6 km/h (1 Bft) SW 225 6,9 C 4,7 km/h (1 Bft)
06.11.2015 16:50 14,2 C 14,6 C 61 % 1024,6 hPa 0,0 mm 3,9 km/h (1 Bft) SW 225 6,8 C 8,3 km/h (2 Bft)
06.11.2015 16:55 13,9 C 14,3 C 61 % 1024,6 hPa 0,0 mm 3,9 km/h (1 Bft) S 180 6,5 C 3,4 km/h (1 Bft)
06.11.2015 17:00 13,5 C 14,1 C 63 % 1024,6 hPa 0,0 mm 3,1 km/h (1 Bft) SW 225 6,6 C 2,6 km/h (1 Bft)
06.11.2015 17:05 13,5 C 13,8 C 64 % 1024,6 hPa 0,0 mm 2,3 km/h (1 Bft) W-SW 247 6,8 C 10,6 km/h (2 Bft)
06.11.2015 17:10 13,6 C 13,9 C 64 % 1024,8 hPa 0,0 mm 4,1 km/h (1 Bft) SW 225 6,9 C 5,4 km/h (1 Bft)
06.11.2015 17:15 13,4 C 13,8 C 64 % 1024,8 hPa 0,0 mm 3,6 km/h (1 Bft) S-SO 157 6,7 C 0,0 km/h (0 Bft)
06.11.2015 17:20 13,3 C 13,7 C 65 % 1024,8 hPa 0,0 mm 1,3 km/h (1 Bft) S-SO 157 6,9 C 0,0 km/h (0 Bft)
06.11.2015 17:25 13,1 C 13,4 C 66 % 1024,8 hPa 0,0 mm 0,3 km/h (0 Bft) SW 225 6,9 C 0,0 km/h (0 Bft)
06.11.2015 17:30 13,0 C 13,4 C 66 % 1024,9 hPa 0,0 mm 1,6 km/h (1 Bft) SW 225 6,8 C 7,8 km/h (2 Bft)
06.11.2015 17:35 12,9 C 13,3 C 67 % 1024,9 hPa 0,0 mm 1,8 km/h (1 Bft) S 180 6,9 C 0,0 km/h (0 Bft)
06.11.2015 17:40 12,9 C 13,2 C 67 % 1024,9 hPa 0,0 mm 0,8 km/h (0 Bft) S 180 6,9 C 0,0 km/h (0 Bft)
06.11.2015 17:45 12,6 C 12,9 C 69 % 1024,9 hPa 0,0 mm 0,0 km/h (0 Bft) S 180 7,1 C 0,0 km/h (0 Bft)
06.11.2015 17:50 12,5 C 12,8 C 69 % 1024,7 hPa 0,0 mm 0,0 km/h (0 Bft) S 180 7,0 C 0,0 km/h (0 Bft)
06.11.2015 17:55 12,3 C 12,6 C 70 % 1024,7 hPa 0,0 mm 0,0 km/h (0 Bft) S 180 7,0 C 0,0 km/h (0 Bft)
06.11.2015 18:01 12,3 C 12,6 C 71 % 1024,7 hPa 0,0 mm 0,0 km/h (0 Bft) S 180 7,2 C 0,0 km/h (0 Bft)
06.11.2015 18:05 12,2 C 12,6 C 71 % 1024,7 hPa 0,0 mm 0,3 km/h (0 Bft) S-SO 157 7,1 C 6,7 km/h (2 Bft)
06.11.2015 18:10 12,3 C 12,6 C 71 % 1024,9 hPa 0,0 mm 1,0 km/h (0 Bft) S-SO 157 7,2 C 0,0 km/h (0 Bft)
06.11.2015 18:15 12,5 C 12,8 C 71 % 1024,9 hPa 0,0 mm 3,1 km/h (1 Bft) SW 225 7,4 C 9,8 km/h (2 Bft)
06.11.2015 18:20 12,9 C 13,1 C 69 % 1024,9 hPa 0,0 mm 4,4 km/h (1 Bft) SW 225 7,4 C 6,0 km/h (2 Bft)
06.11.2015 18:25 13,0 C 13,3 C 67 % 1024,9 hPa 0,0 mm 5,4 km/h (1 Bft) S 180 7,0 C 4,7 km/h (1 Bft)
06.11.2015 18:30 13,1 C 13,4 C 66 % 1025,2 hPa 0,0 mm 6,5 km/h (2 Bft) S-SW 202 6,9 C 0,0 km/h (0 Bft)
06.11.2015 18:35 13,0 C 13,4 C 65 % 1025,2 hPa 0,0 mm 7,8 km/h (2 Bft) W-SW 247 6,6 C 13,2 km/h (3 Bft)
06.11.2015 18:40 13,0 C 13,4 C 65 % 1025,2 hPa 0,0 mm 7,5 km/h (2 Bft) SW 225 6,6 C 10,6 km/h (2 Bft)
06.11.2015 18:45 13,0 C 13,3 C 64 % 1025,2 hPa 0,0 mm 7,5 km/h (2 Bft) W-SW 247 6,4 C 8,3 km/h (2 Bft)
06.11.2015 18:50 13,0 C 13,3 C 64 % 1025,3 hPa 0,0 mm 7,5 km/h (2 Bft) W-SW 247 6,4 C 8,3 km/h (2 Bft)
06.11.2015 18:55 13,0 C 13,1 C 64 % 1025,3 hPa 0,0 mm 5,4 km/h (1 Bft) S 180 6,4 C 6,7 km/h (2 Bft)
06.11.2015 19:00 12,9 C 13,0 C 63 % 1025,3 hPa 0,0 mm 5,4 km/h (1 Bft) SW 225 6,0 C 9,8 km/h (2 Bft)
06.11.2015 19:05 12,9 C 13,0 C 63 % 1025,3 hPa 0,0 mm 6,5 km/h (2 Bft) SW 225 6,0 C 7,0 km/h (2 Bft)
06.11.2015 19:10 12,9 C 13,0 C 63 % 1025,3 hPa 0,0 mm 6,7 km/h (2 Bft) S-SW 202 6,0 C 8,5 km/h (2 Bft)
06.11.2015 19:15 12,8 C 12,9 C 64 % 1025,3 hPa 0,0 mm 7,8 km/h (2 Bft) S 180 6,2 C 10,9 km/h (2 Bft)
06.11.2015 19:20 12,6 C 12,8 C 64 % 1025,3 hPa 0,0 mm 8,8 km/h (2 Bft) S-SO 157 6,0 C 10,9 km/h (2 Bft)
06.11.2015 19:25 12,6 C 12,6 C 64 % 1025,3 hPa 0,0 mm 7,3 km/h (2 Bft) SW 225 6,0 C 8,8 km/h (2 Bft)
06.11.2015 19:30 12,5 C 12,5 C 64 % 1025,4 hPa 0,0 mm 6,5 km/h (2 Bft) S 180 5,9 C 7,5 km/h (2 Bft)
06.11.2015 19:35 12,4 C 12,5 C 65 % 1025,4 hPa 0,0 mm 6,2 km/h (2 Bft) S 180 6,0 C 7,5 km/h (2 Bft)
06.11.2015 19:40 12,5 C 12,6 C 65 % 1025,4 hPa 0,0 mm 6,0 km/h (2 Bft) S 180 6,1 C 8,8 km/h (2 Bft)
06.11.2015 19:45 12,3 C 12,5 C 65 % 1025,4 hPa 0,0 mm 6,5 km/h (2 Bft) S-SW 202 5,9 C 11,4 km/h (2 Bft)
06.11.2015 19:50 12,3 C 12,5 C 65 % 1025,3 hPa 0,0 mm 6,5 km/h (2 Bft) S-SW 202 5,9 C 10,4 km/h (2 Bft)
06.11.2015 19:55 12,5 C 12,5 C 65 % 1025,3 hPa 0,0 mm 6,5 km/h (2 Bft) S 180 6,1 C 6,5 km/h (2 Bft)
06.11.2015 20:00 12,5 C 12,5 C 65 % 1025,3 hPa 0,0 mm 6,2 km/h (2 Bft) S-SW 202 6,1 C 7,5 km/h (2 Bft)
06.11.2015 20:05 12,5 C 12,5 C 64 % 1025,3 hPa 0,0 mm 7,0 km/h (2 Bft) S-SW 202 5,9 C 8,5 km/h (2 Bft)
06.11.2015 20:10 12,5 C 12,5 C 64 % 1025,4 hPa 0,0 mm 8,3 km/h (2 Bft) W-NW 292 5,9 C 11,1 km/h (2 Bft)
06.11.2015 20:15 12,6 C 12,7 C 64 % 1025,4 hPa 0,0 mm 7,8 km/h (2 Bft) W-SW 247 6,0 C 7,3 km/h (2 Bft)
06.11.2015 20:19 12,6 C 12,6 C 65 % 1025,4 hPa 0,0 mm 7,8 km/h (2 Bft) SW 225 6,2 C 12,2 km/h (2 Bft)
06.11.2015 20:20 12,6 C 12,6 C 65 % 1025,4 hPa 0,0 mm 7,8 km/h (2 Bft) SW 225 6,2 C 12,2 km/h (2 Bft)
06.11.2015 20:25 12,6 C 12,6 C 65 % 1025,4 hPa 0,0 mm 8,5 km/h (2 Bft) S-SW 202 6,2 C 7,3 km/h (2 Bft)
06.11.2015 20:30 12,5 C 12,6 C 65 % 1025,6 hPa 0,0 mm 8,5 km/h (2 Bft) S-SW 202 6,1 C 15,3 km/h (3 Bft)
06.11.2015 20:35 12,4 C 12,6 C 65 % 1025,6 hPa 0,0 mm 7,0 km/h (2 Bft) SW 225 6,0 C 8,3 km/h (2 Bft)
06.11.2015 20:40 12,4 C 12,5 C 65 % 1025,6 hPa 0,0 mm 6,0 km/h (2 Bft) SW 225 6,0 C 4,4 km/h (1 Bft)
06.11.2015 20:45 12,2 C 12,5 C 65 % 1025,6 hPa 0,0 mm 3,9 km/h (1 Bft) S 180 5,8 C 3,1 km/h (1 Bft)
06.11.2015 20:50 11,8 C 12,4 C 66 % 1025,5 hPa 0,0 mm 4,1 km/h (1 Bft) SW 225 5,7 C 14,0 km/h (3 Bft)
06.11.2015 20:55 11,6 C 11,9 C 67 % 1025,5 hPa 0,0 mm 4,4 km/h (1 Bft) SW 225 5,7 C 5,4 km/h (1 Bft)
06.11.2015 21:00 11,4 C 11,8 C 67 % 1025,5 hPa 0,0 mm 4,1 km/h (1 Bft) S 180 5,5 C 4,4 km/h (1 Bft)
06.11.2015 21:05 11,1 C 11,2 C 68 % 1025,5 hPa 0,0 mm 2,8 km/h (1 Bft) S 180 5,4 C 0,0 km/h (0 Bft)
06.11.2015 21:10 10,8 C 10,8 C 69 % 1025,5 hPa 0,0 mm 1,3 km/h (1 Bft) S 180 5,3 C 0,0 km/h (0 Bft)
06.11.2015 21:15 10,5 C 10,4 C 71 % 1025,5 hPa 0,0 mm 0,3 km/h (0 Bft) S-SO 157 5,5 C 0,0 km/h (0 Bft)
06.11.2015 21:20 9,6 C 9,8 C 70 % 1025,5 hPa 0,0 mm 0,8 km/h (0 Bft) W 270 4,4 C 3,4 km/h (1 Bft)
06.11.2015 21:25 9,6 C 9,5 C 74 % 1025,5 hPa 0,0 mm 1,8 km/h (1 Bft) S 180 5,2 C 0,0 km/h (0 Bft)
06.11.2015 21:30 8,9 C 9,0 C 73 % 1025,8 hPa 0,0 mm 2,3 km/h (1 Bft) NW 315 4,3 C 0,0 km/h (0 Bft)
06.11.2015 21:35 8,9 C 8,7 C 76 % 1025,8 hPa 0,0 mm 1,3 km/h (1 Bft) SO 135 4,9 C 0,0 km/h (0 Bft)
06.11.2015 21:40 8,4 C 8,3 C 75 % 1025,8 hPa 0,0 mm 0,8 km/h (0 Bft) O-NO 67 4,2 C 0,0 km/h (0 Bft)
06.11.2015 21:45 8,2 C 8,0 C 76 % 1025,8 hPa 0,0 mm 0,0 km/h (0 Bft) O-SO 112 4,2 C 0,0 km/h (0 Bft)
06.11.2015 21:50 8,4 C 8,1 C 78 % 1025,8 hPa 0,0 mm 0,0 km/h (0 Bft) O-SO 112 4,8 C 0,0 km/h (0 Bft)
06.11.2015 21:55 7,8 C 7,6 C 77 % 1025,8 hPa 0,0 mm 0,0 km/h (0 Bft) NW 315 4,0 C 0,0 km/h (0 Bft)
06.11.2015 22:00 7,6 C 7,4 C 77 % 1025,8 hPa 0,0 mm 0,3 km/h (0 Bft) W-SW 247 3,8 C 0,0 km/h (0 Bft)
06.11.2015 22:05 8,1 C 7,7 C 79 % 1025,8 hPa 0,0 mm 0,3 km/h (0 Bft) S-SO 157 4,7 C 3,4 km/h (1 Bft)
06.11.2015 22:10 8,3 C 8,0 C 76 % 1025,8 hPa 0,0 mm 0,8 km/h (0 Bft) S 180 4,3 C 3,6 km/h (1 Bft)
06.11.2015 22:15 8,4 C 8,2 C 76 % 1025,8 hPa 0,0 mm 1,6 km/h (1 Bft) S-SO 157 4,4 C 0,0 km/h (0 Bft)
06.11.2015 22:20 8,4 C 8,3 C 79 % 1025,8 hPa 0,0 mm 2,8 km/h (1 Bft) W-SW 247 5,0 C 8,0 km/h (2 Bft)
06.11.2015 22:25 9,3 C 9,1 C 79 % 1025,8 hPa 0,0 mm 4,9 km/h (1 Bft) SO 135 5,8 C 0,0 km/h (0 Bft)
06.11.2015 22:30 9,5 C 9,3 C 79 % 1025,8 hPa 0,0 mm 4,7 km/h (1 Bft) SO 135 6,0 C 0,0 km/h (0 Bft)
06.11.2015 22:35 8,1 C 8,7 C 77 % 1025,8 hPa 0,0 mm 1,8 km/h (1 Bft) N-NO 22 4,3 C 0,0 km/h (0 Bft)
06.11.2015 22:40 7,5 C 8,2 C 77 % 1025,8 hPa 0,0 mm 0,5 km/h (0 Bft) N-NO 22 3,7 C 0,0 km/h (0 Bft)
06.11.2015 22:45 7,5 C 7,6 C 79 % 1025,8 hPa 0,0 mm 0,0 km/h (0 Bft) O-NO 67 4,1 C 0,0 km/h (0 Bft)
06.11.2015 22:50 7,3 C 7,3 C 79 % 1025,8 hPa 0,0 mm 0,0 km/h (0 Bft) N-NO 22 3,9 C 0,0 km/h (0 Bft)
06.11.2015 22:55 6,9 C 6,8 C 80 % 1025,8 hPa 0,0 mm 0,8 km/h (0 Bft) SO 135 3,7 C 3,6 km/h (1 Bft)
06.11.2015 23:00 7,7 C 7,5 C 77 % 1025,8 hPa 0,0 mm 1,0 km/h (0 Bft) W 270 3,9 C 0,0 km/h (0 Bft)
06.11.2015 23:05 7,3 C 7,1 C 82 % 1025,8 hPa 0,0 mm 0,8 km/h (0 Bft) S 180 4,4 C 0,0 km/h (0 Bft)
06.11.2015 23:10 6,8 C 6,8 C 81 % 1025,9 hPa 0,0 mm 0,5 km/h (0 Bft) N-NO 22 3,8 C 0,0 km/h (0 Bft)
06.11.2015 23:15 6,8 C 6,6 C 81 % 1025,9 hPa 0,0 mm 0,0 km/h (0 Bft) NW 315 3,8 C 0,0 km/h (0 Bft)
06.11.2015 23:20 6,8 C 6,6 C 82 % 1025,9 hPa 0,0 mm 0,0 km/h (0 Bft) SW 225 3,9 C 0,0 km/h (0 Bft)
06.11.2015 23:25 7,2 C 6,9 C 83 % 1025,9 hPa 0,0 mm 0,3 km/h (0 Bft) O-SO 112 4,5 C 0,0 km/h (0 Bft)
06.11.2015 23:30 6,8 C 6,7 C 82 % 1026,1 hPa 0,0 mm 0,5 km/h (0 Bft) SO 135 3,9 C 0,0 km/h (0 Bft)
06.11.2015 23:35 6,6 C 6,5 C 83 % 1026,1 hPa 0,0 mm 1,0 km/h (0 Bft) SO 135 3,9 C 3,4 km/h (1 Bft)
06.11.2015 23:40 6,7 C 6,8 C 79 % 1026,1 hPa 0,0 mm 1,6 km/h (1 Bft) NW 315 3,3 C 0,0 km/h (0 Bft)
06.11.2015 23:45 7,5 C 7,8 C 79 % 1026,1 hPa 0,0 mm 2,6 km/h (1 Bft) W-SW 247 4,1 C 8,8 km/h (2 Bft)
06.11.2015 23:50 7,8 C 7,7 C 83 % 1025,8 hPa 0,0 mm 2,1 km/h (1 Bft) S-SW 202 5,1 C 3,6 km/h (1 Bft)
06.11.2015 23:55 7,3 C 7,4 C 82 % 1025,8 hPa 0,0 mm 0,8 km/h (0 Bft) S-SO 157 4,4 C 0,0 km/h (0 Bft)
_ Min-Zeit 01:20 01:20 14:40 00:05 - 23:20 - - 00:50 23:55
Minimum _ 3,0 C 2,9 C 52 % 1021,5 hPa - 0,0 km/h (0 Bft) - - 1,4 C 0,0 km/h (0 Bft)
_ Max-Zeit 14:45 14:45 06:20 23:45 23:55 19:20 - - 14:10 20:30
Maximum _ 18,5 C 17,5 C 93 % 1026,1 hPa 0,0 mm 8,8 km/h
S-SO (2 Bft)
- - 9,2 C 15,3 km/h
S-SW (3 Bft)
Durchschnitt _ 9,4 C 9,5 C 76 % 1023,9 hPa #0,0 mm 1,2 km/h (1 Bft) SW - 5,1 C 1,7 km/h (1 Bft)